Home   Weather   St. Augustine   Past weeks

Flag for USA Past Weather in St. Augustine, Florida, USA — Yesterday and Last 2 Weeks

75 °F

Passing clouds.

Feels Like: 77 °F
Forecast: 72 / 79 °F
Wind: 16 mph from East

Location: St. Augustine Airport

Current Time: Oct 26, 2016 at 11:15:57 PM

Latest Report: Oct 26, 2016 at 9:58 PM

Visibility: 10 mi

Pressure: 30.26 "Hg

Humidity: 69%

Dew Point: 64 °F

Location of St. AugustineLocation

Past Weather in St. Augustine — Graph


St. Augustine Temperature Yesterday

Maximum temperature yesterday: 76 °F (at 2:58 PM)
Minimum temperature yesterday: 55 °F (at 3:58 AM)
Average temperature yesterday: 67 °F

High & Low Weather Summary for the Past Weeks

High86 °F (Oct 21, 2:58 PM)97% (Oct 21, 6:58 AM)30.28 "Hg (Oct 21, 6:58 AM)
Low52 °F (Oct 23, 7:58 AM)31% (Oct 24, 12:58 PM)29.74 "Hg (Oct 21, 3:58 PM)
Average73 °F71%30.10 "Hg
* Reported Oct 11 9:02 PM — Oct 26 9:58 PM, St. Augustine, Weather by CustomWeather, © 2016

Note: Actual official high and low records may vary slightly from our data, if they occured in-between our weather recording intervals... More about our weather records


St. Augustine Weather History for the Previous 24 Hours

Scroll right to see more
Time TempWeatherWind HumidityBarometerVisibility
9:58 PM
Wed, Oct 26
75 °FPassing clouds.16 mph69%30.26 "Hg10 mi
8:58 PM75 °FClear.15 mph66%30.25 "Hg10 mi
7:58 PM76 °FClear.15 mph69%30.24 "Hg10 mi
6:58 PM77 °FPassing clouds.15 mph69%30.23 "Hg10 mi
5:58 PM78 °FSunny.9 mph66%30.22 "Hg10 mi
4:58 PM79 °FBroken clouds.10 mph65%30.23 "Hg10 mi
3:58 PM81 °FSunny.12 mph56%30.23 "Hg9 mi
2:58 PM81 °FSunny.10 mph56%30.23 "Hg10 mi
1:58 PM82 °FPartly sunny.14 mph58%30.24 "Hg10 mi
12:58 PM81 °FMostly cloudy.14 mph60%30.26 "Hg10 mi
11:58 AM79 °FMostly cloudy.9 mph62%30.27 "Hg10 mi
10:58 AM80 °FSunny.8 mph60%30.27 "Hg10 mi
9:58 AM79 °FSunny.8 mph65%30.27 "Hg10 mi
8:58 AM70 °FScattered clouds.No wind87%30.25 "Hg9 mi
7:58 AM65 °FSunny.No wind87%30.24 "Hg10 mi
6:58 AM65 °FPassing clouds.No wind91%30.23 "Hg10 mi
5:58 AM64 °FPassing clouds.3 mph90%30.22 "Hg10 mi
4:58 AM66 °FClear.No wind87%30.21 "Hg10 mi
3:58 AM72 °FClear.6 mph78%30.21 "Hg10 mi
2:58 AM72 °FClear.7 mph81%30.22 "Hg10 mi
1:58 AM68 °FClear.No wind84%30.23 "Hg10 mi
12:58 AM68 °FPassing clouds.No wind87%30.23 "Hg10 mi
11:58 PM
Tue, Oct 25
73 °FClear.3 mph81%30.24 "Hg10 mi
Weather by CustomWeather, © 2016

See weather overviewHow to use our weather pages